Notices

What's New in latest Release from April 7th, 2021:

- Updated Glossary, including Speed of Maximum Gust, and Total Hourly Precipitation

- Updated national and regional climate services offices contacts and prices information

- Addition of station inventory lists for 1981-2010, 1971-2000, and 1961-1990 Normals.

If you haven't already, please take our survey and provide feedback about our website: https://eccc.sondage-survey.ca/f/LanguageSelection.aspx?s=442ca660-fcf1-47c0-95a9-59707d6fd709

Hourly Data Report for March 10, 2021

OTTAWA INTL A
ONTARIO
Current Station Operator: NAVCAN

45°19'00.000" N
75°40'00.000" W
114.90 m
6106001
71628
YOW

Download Data

Hourly Data (March 2021)
Hourly Data Report for March 10, 2021
TIME
LST
Temp Definition
°C
Dew Point Definition
°C
Rel Hum Definition
%
Precip. Amount Definition
mm

Wind Dir Definition
10's deg

Wind Spd Definition
km/h
Visibility Definition
km
Stn Press Definition
kPa
Hmdx Definition


Wind Chill Definition


Weather Definition


00:00 -1.1 -4.1 80   19 9 24.1 101.63   -4 LegendNANA
01:00 -1.9 -4.2 84   19 8 24.1 101.66   -5 Clear
02:00 -2.9 -4.7 87   9 4 24.1 101.67   -4 LegendNANA
03:00 -4.4 -5.3 93   11 8 24.1 101.67   -8 LegendNANA
04:00 -4.7 -5.6 94   10 5 12.9 101.65   -7 Mainly Clear
05:00 -4.4 -5.0 95   9 10 12.9 101.59   -9 LegendNANA
06:00 -6.3 -7.0 95   6 8 12.9 101.60   -10 LegendNANA
07:00 -5.7 -6.3 95   8 11 6.4 101.56   -10 Fog
08:00 -3.7 -4.6 94   9 9 16.1 101.57   -7 LegendNANA
09:00 -0.6 -3.6 80   11 14 24.1 101.52   -5 LegendNANA
10:00 2.0 -3.0 69   10 11 24.1 101.44     Mostly Cloudy
11:00 3.4 -3.9 59   11 18 24.1 101.29     LegendNANA
12:00 4.1 -3.5 58   10 15 24.1 101.17     LegendNANA
13:00 5.4 -3.6 52   11 13 24.1 101.08     Mostly Cloudy
14:00 6.2 -3.2 51   10 18 24.1 100.95     LegendNANA
15:00 7.8 -3.1 46   10 13 24.1 100.87     LegendNANA
16:00 8.0 -3.1 45   11 11 24.1 100.80     Mostly Cloudy
17:00 4.8 -1.7 62   10 10 24.1 100.72     LegendNANA
18:00 4.4 -1.4 66   12 12 24.1 100.70     LegendNANA
19:00 5.3 -1.6 61   10 10 24.1 100.72     Mostly Cloudy
20:00 6.2 -1.7 57   15 11 24.1 100.66     LegendNANA
21:00 8.7 -1.8 47   17 12 24.1 100.60     LegendNANA
22:00 8.3 -1.5 50   18 14 24.1 100.53     Mostly Cloudy
23:00 8.0 -1.4 51   18 17 24.1 100.47     LegendNANA

Notes on Data Quality.

Legend

  • E = Estimated
  • M = Missing
  • NA = Not Available*
  • [empty] = Indicates an unobserved value
Date modified: